Find Starlink 32686

NORAD ID: 62192 Int'l Des: 2024-229 Owner: SPXS Country: US Constellation: starlink operational
LEOCIRCULAR

リアルタイム位置

3D地球を読み込み中...

Starlink 32686について

説明を読み込み中...

次回通過

Passes for default location (London). Set your location on the main map for personalized predictions.

高度履歴

Loading altitude history...

軌道要素

1 62192U 24229A 26121.26238328 .00047825 00000-0 17334-2 0 9991
2 62192 43.0033 330.1921 0002972 277.5157 82.5357 15.27630144 78646
Epoch: May 1, 2026 • Age: 17 hours

現在のステータス

高度 483.7 km
速度 7.62 km/s
衛星直下点 -7.15°S, 48.17°W
打ち上げ日 Dec 4, 2024
運用期間 1.4 years
タイプ internet

技術仕様

分類 Payload
質量 730.00 kg
乾燥質量 700.00 kg
総質量 730.00 kg
長さ 0.30 m
直径 4.10 m
スパン 29.00 m
形状 Box + pan
製造者 SPXS
バスタイプ Starlink V2M
フェーズステータス In Orbit
所有者/国 SPXS/US

Most Searched